Location: Stull Observatory
(42.2506°N, 77.7903°W)
Time: 04:45:32
(UTC-04:00)

Okean O Rocket - Visible Passes

Search period start: 16 April 2014 00:00
Search period end: 26 April 2014 00:00
Orbit: 626 x 647 km, 97.9° (Epoch: 14 April)

Date Brightness Start Highest point End Pass type
(mag) Time Alt. Az. Time Alt. Az. Time Alt. Az.
16 Apr 4.3 03:02:09 10° ENE 03:03:44 12° E 03:04:29 11° E visible
16 Apr 1.6 04:36:13 10° N 04:40:36 65° WNW 04:42:00 41° SW visible
17 Apr 3.7 03:23:05 10° NE 03:26:23 20° E 03:27:16 19° ESE visible
17 Apr 2.3 04:58:52 10° N 05:02:56 37° WNW 05:04:47 25° WSW visible
18 Apr 2.9 03:44:55 10° NNE 03:48:57 34° E 03:50:03 30° SE visible
18 Apr 3.0 05:21:45 10° NNW 05:25:11 23° WNW 05:27:34 15° WSW visible
19 Apr 2.0 04:07:04 10° NNE 04:11:26 61° E 04:12:49 40° SSE visible
19 Apr 3.5 05:45:06 10° NNW 05:47:21 14° WNW 05:49:36 10° W visible
20 Apr 1.5 04:29:27 10° N 04:33:51 77° WNW 04:35:35 36° SSW visible
21 Apr 3.9 03:16:38 10° NE 03:19:33 17° E 03:20:51 15° ESE visible
21 Apr 2.0 04:52:01 10° N 04:56:12 44° WNW 04:58:22 25° SW visible
22 Apr 3.2 03:38:17 10° NE 03:42:08 29° E 03:43:36 24° SE visible
22 Apr 2.8 05:14:49 10° NNW 05:18:28 26° WNW 05:21:08 15° WSW visible
23 Apr 2.3 04:00:21 10° NNE 04:04:38 51° E 04:06:22 31° SSE visible
23 Apr 3.4 05:37:58 10° NNW 05:40:39 16° WNW 05:43:20 10° WSW visible
24 Apr 1.5 04:22:40 10° NNE 04:27:04 90° ESE 04:29:08 31° SSW visible
25 Apr 4.1 03:10:15 10° ENE 03:12:41 15° E 03:14:22 12° ESE visible
25 Apr 1.8 04:45:10 10° N 04:49:26 51° WNW 04:51:53 23° SW visible
